Satellite-Ground Cal/Val Region Overpasses Predictions

Prediction of Satellite NPP Overpassing Cal/Val Region: PacNW

Region Location: (Latitude: 10.00, Longitude: 139.50) to (Latitude: 22.70, Longitude: 165.60).

Table of predicted overpasses for the next 14.0 days since TLE Epoch: 8/20/2016
Interval Starting Time Starting Location Ending Time Ending Location
1 08/20/2016 15:05:23 ( 22.66, 158.75) 08/20/2016 15:08:58 ( 10.04, 155.75)
2 08/21/2016 02:15:19 ( 13.05, 165.59) 08/21/2016 02:18:03 ( 22.68, 163.28)
3 08/21/2016 03:55:57 ( 10.00, 140.91) 08/21/2016 03:57:40 ( 16.05, 139.51)
4 08/21/2016 14:46:21 ( 22.66, 163.51) 08/21/2016 14:49:56 ( 10.04, 160.51)
5 08/22/2016 03:36:55 ( 10.00, 145.67) 08/22/2016 03:40:31 ( 22.68, 142.66)
6 08/22/2016 14:30:29 ( 11.45, 165.59) 08/22/2016 14:30:53 ( 10.04, 165.27)
7 08/22/2016 16:08:48 ( 22.65, 142.89) 08/22/2016 16:12:23 ( 10.03, 139.89)
8 08/23/2016 03:17:52 ( 10.00, 150.43) 08/23/2016 03:21:28 ( 22.68, 147.42)
9 08/23/2016 15:49:46 ( 22.65, 147.65) 08/23/2016 15:53:21 ( 10.03, 144.65)
10 08/24/2016 02:58:50 ( 10.00, 155.19) 08/24/2016 03:02:26 ( 22.68, 152.18)
11 08/24/2016 15:30:44 ( 22.65, 152.41) 08/24/2016 15:34:19 ( 10.03, 149.41)
12 08/25/2016 02:39:47 ( 10.00, 159.95) 08/25/2016 02:43:23 ( 22.68, 156.94)
13 08/25/2016 15:11:41 ( 22.65, 157.17) 08/25/2016 15:15:16 ( 10.03, 154.17)
14 08/26/2016 02:20:45 ( 10.00, 164.71) 08/26/2016 02:24:21 ( 22.68, 161.70)
15 08/26/2016 14:52:39 ( 22.65, 161.93) 08/26/2016 14:56:14 ( 10.04, 158.93)
16 08/27/2016 03:43:12 ( 10.01, 144.10) 08/27/2016 03:46:48 ( 22.69, 141.08)
17 08/27/2016 14:34:53 ( 18.14, 165.59) 08/27/2016 14:37:11 ( 10.04, 163.69)
18 08/27/2016 16:15:06 ( 22.65, 141.32) 08/27/2016 16:17:13 ( 15.20, 139.51)
19 08/28/2016 03:24:10 ( 10.01, 148.86) 08/28/2016 03:27:46 ( 22.69, 145.84)
20 08/28/2016 15:56:04 ( 22.65, 146.08) 08/28/2016 15:59:39 ( 10.03, 143.08)
21 08/29/2016 03:05:07 ( 10.01, 153.62) 08/29/2016 03:08:43 ( 22.69, 150.60)
22 08/29/2016 15:37:01 ( 22.65, 150.84) 08/29/2016 15:40:36 ( 10.03, 147.84)
23
